WGS F7 (USA 263)

Last updated on Wed Sep 17 2025 00:02:48 GMT+0000 (Coordinated Universal Time)

1 40746U 15036A 25259.54707184 -.00000002 00000+0 00000+0 0 9996 2 40746 0.0020 175.9085 0000170 6.5131 185.2580 1.00271946 37126
UTC large
Height (km)
Speed (km/s)
/
Latitude / Longitude
Inclination (degrees)
Orbital Period (minutes)
Azimuth
Elevation
Range (km)
Doppler Factor

Next 0 passes for location: London (51.5072 / 0.1276)

Sorry there are no passes over London.